Location: Wien
(48.2082°N, 16.3738°E)
Time: 13:14:57
(UTC+02:00)

Tiros 1 despin weight - Pass Details

Date: 15 September 2024
Orbit: 573 x 615 km, 48.2° (Epoch: 06 October)

Event Time Altitude Azimuth Distance (km) Brightness Sun altitude
Rises 09:08:15 0° 284° (WNW) 2,892 ? 24.5°
Reaches altitude 10° 09:10:39 10° 278° (W) 1,983 ? 24.9°
Maximum altitude 09:14:59 44° 207° (SSW) 859 ? 25.5°
Drops below altitude 10° 09:19:16 10° 135° (SE) 1,963 ? 26.2°
Sets 09:21:37 0° 129° (SE) 2,859 ? 26.5°
